Ephrata, WA
on Wednesday, November 14, 2012

Wednesday
Previous Day Next Day
Daily Summary
 ActualAverageRecord
Temperature
Mean Temperature °F 38°F  
Max Temperature 36°F 46°F 63°F (2001)
Min Temperature 33°F 30°F 1°F (1955)
Degree Days
Heating Degree Days 30 27  
Month to date heating degree days 328 345  
Since 1 July heating degree days 823 926  
Cooling Degree Days 0 0  
Month to date cooling degree days 0 0  
Year to date cooling degree days 837 772  
Moisture
Dew Point 32°F   
Average Humidity 89    
Maximum Humidity 96    
Minimum Humidity 82    
Precipitation
Precipitation 0.02 in 0.03 in 0.38 in (1963)
Month to date precipitation 0.57 0.45  
Year to date precipitation 6.43 6.00  
Wind
Wind Speed 5 mph   
Max Wind Speed 10 mph   
Max Gust Speed 12 mph   
Visibility 9 miles   
Events     

Key: T is trace of precipitation, MM is missing value
Source: NWS Daily Summary
Time(PST)TemperatureDew PointHumidity Pressure Visibility Wind DirectionWind SpeedGust SpeedPrecipitationEvents Conditions
12:53 AM 33.1°F 32.0°F 96% 30.22 in 6.0 miles SSW 5.8 mph - N/A   Overcast
1:07 AM 33.8°F 32.0°F 93% 30.18 in 6.0 miles SW 5.8 mph - N/A   Overcast
1:53 AM 34.0°F 32.0°F 92% 30.23 in 7.0 miles SSW 5.8 mph - N/A   Overcast
2:53 AM 34.0°F 32.0°F 92% 30.22 in 7.0 miles SW 3.5 mph - N/A   Overcast
3:53 AM 35.1°F 30.9°F 85% 30.22 in 10.0 miles West 5.8 mph - N/A   Overcast
4:05 AM 33.8°F 30.2°F 87% 30.18 in 10.0 miles WNW 5.8 mph - N/A   Overcast
4:53 AM 34.0°F 30.9°F 89% 30.23 in 10.0 miles NW 4.6 mph - N/A   Overcast
5:53 AM 34.0°F 30.9°F 89% 30.24 in 10.0 miles NW 3.5 mph - N/A   Overcast
6:53 AM 33.1°F 30.0°F 89% 30.26 in 10.0 miles NNW 6.9 mph - N/A   Overcast
7:53 AM 33.1°F 30.0°F 89% 30.28 in 10.0 miles NNW 5.8 mph - N/A   Overcast
8:53 AM 33.1°F 30.0°F 89% 30.30 in 10.0 miles NNW 6.9 mph - N/A   Overcast
9:53 AM 34.0°F 30.9°F 89% 30.30 in 9.0 miles Calm Calm - N/A   Overcast
10:53 AM 34.0°F 32.0°F 92% 30.32 in 10.0 miles East 3.5 mph - N/A   Overcast
11:53 AM 35.1°F 32.0°F 89% 30.33 in 10.0 miles ENE 3.5 mph - N/A   Overcast
12:53 PM 35.1°F 32.0°F 89% 30.32 in 10.0 miles Calm Calm - N/A   Overcast
1:53 PM 36.0°F 33.1°F 89% 30.32 in 10.0 miles NE 4.6 mph - N/A   Overcast
2:53 PM 36.0°F 32.0°F 86% 30.33 in 10.0 miles NNE 4.6 mph - N/A   Overcast
3:53 PM 36.0°F 32.0°F 86% 30.34 in 10.0 miles Calm Calm - N/A   Overcast
4:53 PM 36.0°F 32.0°F 86% 30.35 in 10.0 miles NE 3.5 mph - N/A   Overcast
5:53 PM 36.0°F 32.0°F 86% 30.36 in 10.0 miles NNE 4.6 mph - N/A   Overcast
6:53 PM 36.0°F 32.0°F 86% 30.37 in 10.0 miles NE 4.6 mph - N/A   Overcast
7:53 PM 35.1°F 33.1°F 92% 30.38 in 10.0 miles NE 4.6 mph - N/A   Overcast
8:53 PM 35.1°F 32.0°F 89% 30.39 in 10.0 miles NE 6.9 mph - N/A   Overcast
9:53 PM 35.1°F 32.0°F 89% 30.39 in 10.0 miles NNE 6.9 mph - N/A   Overcast
10:53 PM 35.1°F 32.0°F 89% 30.39 in 10.0 miles NNE 6.9 mph - N/A   Overcast
11:53 PM 35.1°F 32.0°F 89% 30.38 in 10.0 miles North 9.2 mph - N/A   Overcast
Moon Phase
Nov. 14 Nov. 20 Nov. 28 Dec. 06 Dec. 13
Sunrise:07:01 AM (PST) Moon Rise:08:00 AM (PST)11/14
Sunset:04:22 PM (PST) Moon Set:05:11 PM (PST)11/14

Copyright © 2014 The Weather Underground, Inc.